Location: Acts Church of Fort Worth
(32.6786°N, 97.2668°W)
Time: 22:06:47
(UTC+00:00)

Helios 1A Rocket - Pass Details

Date: 18 January 2026
Orbit: 425 x 436 km, 98.3° (Epoch: 13 February)

Event Time Altitude Azimuth Distance (km) Brightness Sun altitude
Exits shadow 01:18:32 50° 20° (NNE) 556 2.6 -18.9°
Maximum altitude 01:19:17 84° 100° (E) 438 2.1 -19.0°
Drops below altitude 10° 01:22:32 10° 191° (SSW) 1,519 5.4 -19.7°
Sets 01:24:31 0° 192° (SSW) 2,378 6.4 -20.1°
